Location: Central Coast NSW, Australia
(33.2407°S, 151.4316°E)
Time: 05:50:56
(UTC+10:00)

Envisat - Pass Details

Date: 29 March 2019
Orbit: 764 x 766 km, 98.2° (Epoch: 23 April)

Event Time Altitude Azimuth Distance (km) Brightness Sun altitude
Rises 21:34:29 0° 190° (S) 3,266 6.6 -33.8°
Reaches altitude 10° 21:37:45 10° 211° (SSW) 2,331 6.0 -34.4°
Maximum altitude 21:40:37 15° 246° (WSW) 1,981 5.8 -34.9°
Drops below altitude 10° 21:43:28 10° 280° (W) 2,315 6.1 -35.5°
Sets 21:46:42 0° 302° (WNW) 3,232 6.6 -36.1°
